Flag Weather past 2 weeks in Warren, Michigan, U.S.A.

Now
56 °F

Mostly cloudy.


Feels Like: 52 °F
Forecast: 37 / 58 °F
Wind: 15 mph from Southwest

Location: Detroit City Airport

Current Time: Nov 24, 2014 at 1:10:20 PM

Latest Report: Nov 24, 2014 at 11:53 AM


Visibility: 10 mi

Pressure: 29.13 "Hg

Humidity: 84%

Dew point: 51 °F

Location of WarrenLocation

Historic Weather in Warren — Graph

°F

Warren temperature yesterday

Maximum temperature yesterday: 55 °F (at 2:53 PM)
Minimum temperature yesterday: 46 °F (at 8:53 AM)
Average temperature yesterday: 50 °F

Past Weeks' High & Low Weather Summary

 TemperatureHumidityPressure
High65 °F (Nov 11, 1:53 PM)89% (Nov 23, 10:00 PM)30.87 "Hg (Nov 23, 10:00 PM)
Low14 °F (Nov 18, 4:53 AM)42% (Nov 13, 12:53 PM)28.18 "Hg (Nov 21, 5:53 AM)
Average35 °F64%29.99 "Hg
* Reported Nov 9 11:53 AM — Nov 24 11:53 AM, Warren, Weather by CustomWeather, © 2014

Note: Actual official high and low records may vary slightly from our data, if they occured in-between our weather recording intervals... More about our weather records

Advertising

Warren weather history for previous 24 hours

 ConditionsComfort  
Time TempWeatherWind HumidityBarometerVisibility
11:53 AM
Nov 24
56 °FMostly cloudy.15 mph84%29.13 "Hg10 mi
11:00 AM56 °FLight rain. Mostly cloudy.16 mph84%29.14 "Hg9 mi
9:53 AM56 °FScattered clouds.14 mph87%29.13 "Hg10 mi
9:01 AM56 °FLight rain. Mostly cloudy.14 mph84%29.15 "Hg10 mi
7:53 AM57 °FOvercast.13 mph83%29.16 "Hg10 mi
6:53 AM57 °FLight rain. Mostly cloudy.18 mph83%29.14 "Hg4 mi
5:53 AM57 °FOvercast.24 mph83%29.12 "Hg9 mi
4:53 AM56 °FMostly cloudy.18 mph87%29.09 "Hg10 mi
3:53 AM57 °FLight rain. Mostly cloudy.24 mph83%29.07 "Hg7 mi
2:53 AM56 °FLight rain. Fog.16 mph87%29.10 "Hg6 mi
1:53 AM54 °FLight rain. Low clouds.14 mph86%29.13 "Hg8 mi
12:53 AM53 °FLight rain. Fog.16 mph89%29.19 "Hg6 mi
11:53 PM
Nov 23
52 °FRain. Fog.14 mph89%29.26 "Hg3 mi
11:04 PM51 °FRain. Fog.12 mph89%29.31 "Hg3 mi
10:00 PM50 °FRain. Fog.12 mph89%29.41 "Hg2 mi
8:53 PM51 °FLight rain. Overcast.10 mph80%29.50 "Hg6 mi
7:53 PM52 °FLight rain. Overcast.8 mph75%29.56 "Hg10 mi
6:53 PM51 °FLight rain. Overcast.8 mph71%29.60 "Hg10 mi
5:53 PM52 °FMostly cloudy.8 mph66%29.65 "Hg10 mi
4:53 PM53 °FMostly cloudy.9 mph69%29.68 "Hg10 mi
3:53 PM54 °FOvercast.8 mph72%29.73 "Hg10 mi
2:53 PM55 °FPassing clouds.9 mph69%29.75 "Hg10 mi
1:53 PM53 °FPassing clouds.12 mph72%29.80 "Hg10 mi
Weather by CustomWeather, © 2014

See weather overviewHow to use our weather pages